Вернуться в каталог

COSMOS 839 DEB

АктивенUNKNOWN
NORAD 10440·DEBRIS·🇷🇺 Russia

Запущен Jul 8, 1976 с Plesetsk Cosmodrome

Loading…

Ближайшие Пролёты (ближайшие 24 часа)

TLE

СвежийSource: Space-Track

Эпоха: Sep 13, 2026, 02:05 UTC

1 10440U 76067R   26256.08682259  .00000378  00000-0  13352-2 0  9990
2 10440  65.6505 136.5244 0710547  45.3475  96.2344 12.40600175268993

Отслеживайте COSMOS 839 DEB в реальном времени с AllMySat

Download on the App Store